Weather History for KLHX - June, 2013

Change the Weather History Date:

Saturday, June 29, 2013

  Actual Average Record
Temperature  
Mean Temperature 81 °F 77 °F  
Max Temperature 93 °F 93 °F 109 °F (1990)
Min Temperature 69 °F 61 °F 51 °F (1945)
Degree Days  
Heating Degree Days 0 0  
Month to date heating degree days 11 15  
Since 1 June heating degree days 11 15  
Since 1 July heating degree days 5085 5270  
Cooling Degree Days 16 12  
Month to date cooling degree days 381 234  
Year to date cooling degree days 519 307  
Since 1 June cooling degree days 381 234  
Growing Degree Days 32 (Base 50)    
Moisture  
Dew Point 51 °F    
Average Humidity 42    
Maximum Humidity 61    
Minimum Humidity 22    
Precipitation  
Precipitation T in 0.05 in 0.55 in (1972)
Month to date precipitation 2.00 1.32  
Year to date precipitation 2.67 5.61  
Sea Level Pressure  
Sea Level Pressure 29.97 in    
Wind  
Wind Speed 9 mph (ENE)    
Max Wind Speed 45 mph    
Max Gust Speed 52 mph    
Visibility 9 miles    
Events Rain    
T = Trace of Precipitation, MM = Missing Value Source: NWS Daily Summary

Daily Weather History Graph

Daily Weather History Graph

Search for Another Location

Airport or City:

Trip Planner

Search our weather history database for the weather conditions in past years. The results will help you decide how hot, cold, wet, or windy it might be!

Date:

Astronomy

Jun. 29, 2013 Rise Set
Actual Time 5:34 AM MDT 8:20 PM MDT
Civil Twilight 5:02 AM MDT 8:52 PM MDT
Nautical Twilight 4:23 AM MDT 9:31 PM MDT
Astronomical Twilight 3:38 AM MDT 10:16 PM MDT
Moon No Moon Rise 12:41 PM MDT (6/29)
Length of Visible Light 15h 49m
Length of Day
14h 46m
Waning Gibbous, 55% of the Moon is Illuminated
Jun 29
Waning Gibbous
Jun 29
Last Quarter
Jul 8
New
Jul 15
First Quarter
Jul 22
Full

Hourly Weather History & Observations

Time (MDT) Temp. Dew Point Humidity Pressure Visibility Wind Dir Wind Speed Gust Speed Precip Events Conditions
12:53 AM 80.1 °F 51.1 °F 36% 29.88 in 10.0 mi NE 20.7 mph - N/A   Clear
1:06 AM 80.6 °F 48.2 °F 32% 30.12 in 2.5 mi NNE 38.0 mph 47.2 mph N/A   Haze
1:28 AM 78.8 °F 48.2 °F 34% 30.16 in 1.8 mi NNE 38.0 mph 51.8 mph N/A   Haze
1:36 AM 78.8 °F 48.2 °F 34% 30.18 in 3.0 mi NNE 36.8 mph 49.5 mph N/A   Haze
1:53 AM 75.0 °F 52.0 °F 44% 29.96 in 5.0 mi NNE 41.4 mph 50.6 mph N/A   Haze
2:53 AM 72.0 °F 55.0 °F 55% 29.95 in 10.0 mi ENE 26.5 mph 34.5 mph N/A   Clear
3:53 AM 73.9 °F 52.0 °F 46% 29.94 in 10.0 mi ESE 11.5 mph - N/A   Clear
4:53 AM 73.0 °F 53.1 °F 49% 29.96 in 10.0 mi SSE 8.1 mph - N/A   Clear
5:53 AM 70.0 °F 52.0 °F 53% 30.00 in 10.0 mi NNW 4.6 mph - N/A   Clear
6:53 AM 72.0 °F 52.0 °F 49% 30.02 in 10.0 mi NNW 3.5 mph - N/A   Clear
7:53 AM 75.0 °F 53.1 °F 46% 30.02 in 10.0 mi Calm Calm - N/A   Clear
8:53 AM 77.0 °F 51.1 °F 40% 30.01 in 10.0 mi Calm Calm - N/A   Clear
9:53 AM 79.0 °F 50.0 °F 36% 29.99 in 10.0 mi SE 4.6 mph - N/A   Clear
10:53 AM 82.0 °F 50.0 °F 33% 29.97 in 10.0 mi South 8.1 mph - N/A   Clear
11:53 AM 84.9 °F 50.0 °F 30% 29.96 in 10.0 mi SE 8.1 mph - N/A   Clear
12:53 PM 87.1 °F 48.9 °F 27% 29.93 in 10.0 mi SE 4.6 mph - N/A   Clear
1:53 PM 90.0 °F 48.9 °F 24% 29.92 in 10.0 mi East 10.4 mph - N/A   Clear
2:53 PM 93.0 °F 48.9 °F 22% 29.89 in 10.0 mi ENE 18.4 mph 23.0 mph N/A   Clear
3:53 PM 90.0 °F 48.0 °F 24% 29.89 in 10.0 mi East 4.6 mph - N/A   Clear
4:53 PM 90.0 °F 48.0 °F 24% 29.87 in 10.0 mi ENE 5.8 mph - N/A   Clear
5:53 PM 89.1 °F 48.0 °F 24% 29.87 in 10.0 mi NNE 3.5 mph - N/A   Clear
6:53 PM 77.0 °F 57.9 °F 52% 29.91 in 10.0 mi ENE 17.3 mph - 0.00 in Rain Light Rain
7:53 PM 79.0 °F 52.0 °F 39% 29.91 in 10.0 mi ENE 9.2 mph - 0.00 in   Mostly Cloudy
8:53 PM 78.1 °F 51.1 °F 39% 29.90 in 10.0 mi Calm Calm - N/A   Partly Cloudy
9:53 PM 73.0 °F 54.0 °F 51% 29.94 in 10.0 mi WNW 3.5 mph - N/A   Clear
10:53 PM 71.1 °F 55.0 °F 57% 29.96 in 10.0 mi ENE 6.9 mph - N/A   Clear
11:53 PM 70.0 °F 55.9 °F 61% 29.96 in 10.0 mi East 8.1 mph - N/A   Clear